QPF
0.01 0.01 0.00 0.00 0.00 0.00 0.01 0.01 0.01 0.01 0.00 0.01 0.01 0.00 0.00 0.00 0.00 0.00 0.00 0.00 0.00 0.00 0.00 0.00 0.00 0.00 0.01 0.01 0.01 0.00 0.00 0.00 0.00 0.00 0.00 0.00 0.00 0.00 0.00 0.00 0.01 0.01 0.01 0.01
0.00 0.00 0.00 0.00 0.00 0.00 0.00 0.01 0.01 0.01 0.01 0.00 0.00 0.00 0.00 0.00 0.00 0.00 0.00 0.00 0.00 0.01 0.01 0.01 0.01 0.00 0.01 0.01 0.01 0.00 0.00 0.00 0.00 0.00 0.00 0.00 0.00 0.00 0.00 0.00 0.01 0.01 0.01 0.01
0.00 0.00 0.00 0.00 0.00 0.00 0.00 0.00 0.01 0.01 0.01 0.00 0.00 0.00 0.00 0.00 0.00 0.00 0.00 0.00 0.00 0.00 0.00 0.00 0.01 0.00 0.00 0.01 0.01 0.00 0.00 0.00 0.00 0.00 0.00 0.00 0.00 0.00 0.00 0.00 0.00 0.01 0.01 0.01
0.01 0.00 0.01 0.00 0.00 0.00 0.00 0.00 0.00 0.01 0.01 0.00 0.00 0.00 0.00 0.00 0.00 0.00 0.00 0.00 0.00 0.00 0.00 0.00 0.00 0.00 0.00 0.00 0.00 0.00 0.00 0.00 0.00 0.01 0.01 0.00 0.00 0.00 0.00 0.00 0.00 0.01 0.01 0.01
0.01 0.01 0.01 0.00 0.00 0.00 0.00 0.01 0.00 0.00 0.00 0.01 0.00 0.00 0.00 0.00 0.00 0.00 0.00 0.00 0.00 0.00 0.00 0.00 0.00 0.00 0.00 0.00 0.00 0.00 0.00 0.00 0.01 0.01 0.01 0.00 0.00 0.00 0.00 0.00 0.00 0.01 0.02 0.02
0.01 0.01 0.00 0.00 0.00 0.00 0.00 0.01 0.00 0.00 0.00 0.00 0.00 0.01 0.00 0.00 0.00 0.00 0.00 0.00 0.00 0.00 0.00 0.00 0.00 0.00 0.00 0.00 0.00 0.00 0.00 0.00 0.01 0.01 0.01 0.00 0.00 0.00 0.00 0.01 0.01 0.01 0.02 0.02
0.01 0.01 0.01 0.00 0.00 0.00 0.00 0.01 0.00 0.00 0.00 0.00 0.00 0.00 0.00 0.00 0.00 0.00 0.00 0.00 0.00 0.00 0.00 0.00 0.00 0.00 0.00 0.00 0.00 0.00 0.00 0.00 0.01 0.01 0.01 0.00 0.01 0.01 0.02 0.02 0.02 0.02 0.02 0.02
0.01 0.01 0.01 0.00 0.00 0.00 0.00 0.00 0.00 0.00 0.00 0.00 0.00 0.00 0.00 0.00 0.00 0.00 0.00 0.00 0.00 0.00 0.00 0.00 0.00 0.00 0.00 0.00 0.00 0.00 0.00 0.00 0.01 0.00 0.00 0.00 0.01 0.01 0.02 0.02 0.02 0.02 0.03 0.03
0.01 0.01 0.01 0.00 0.00 0.00 0.00 0.00 0.00 0.00 0.00 0.00 0.00 0.00 0.00 0.00 0.00 0.00 0.00 0.00 0.00 0.00 0.00 0.00 0.00 0.00 0.00 0.00 0.00 0.00 0.00 0.00 0.01 0.00 0.00 0.01 0.01 0.01 0.02 0.02 0.03 0.03 0.03 0.04
0.01 0.01 0.00 0.00 0.00 0.00 0.00 0.00 0.00 0.00 0.00 0.00 0.00 0.00 0.00 0.00 0.00 0.00 0.00 0.00 0.01 0.01 0.01 0.01 0.00 0.00 0.00 0.00 0.00 0.00 0.00 0.00 0.00 0.00 0.01 0.02 0.02 0.02 0.02 0.03 0.02 0.02 0.02 0.03
0.01 0.01 0.00 0.00 0.00 0.00 0.00 0.00 0.00 0.00 0.00 0.00 0.00 0.00 0.00 0.00 0.00 0.00 0.00 0.00 0.00 0.01 0.01 0.01 0.01 0.01 0.01 0.01 0.00 0.00 0.00 0.01 0.01 0.01 0.01 0.02 0.02 0.02 0.02 0.02 0.02 0.03 0.03 0.03
0.01 0.00 0.00 0.01 0.00 0.00 0.00 0.00 0.00 0.00 0.00 0.00 0.00 0.00 0.00 0.00 0.00 0.00 0.00 0.00 0.00 0.00 0.00 0.00 0.00 0.00 0.01 0.01 0.01 0.00 0.01 0.01 0.01 0.01 0.01 0.01 0.01 0.01 0.02 0.02 0.02 0.02 0.02 0.03
0.00 0.00 0.00 0.00 0.00 0.00 0.00 0.00 0.00 0.00 0.00 0.00 0.00 0.00 0.00 0.00 0.00 0.00 0.00 0.00 0.00 0.00 0.00 0.00 0.00 0.00 0.00 0.00 0.00 0.00 0.00 0.01 0.01 0.01 0.01 0.01 0.02 0.02 0.02 0.03 0.03 0.03 0.03 0.03
0.00 0.00 0.00 0.00 0.00 0.00 0.00 0.00 0.00 0.00 0.00 0.00 0.00 0.00 0.00 0.00 0.00 0.00 0.00 0.00 0.00 0.00 0.00 0.00 0.00 0.00 0.00 0.00 0.00 0.00 0.00 0.00 0.01 0.01 0.02 0.02 0.03 0.04 0.04 0.04 0.04 0.04 0.04 0.04
0.00 0.00 0.00 0.00 0.00 0.00 0.00 0.00 0.00 0.00 0.00 0.00 0.00 0.00 0.00 0.00 0.00 0.00 0.00 0.00 0.00 0.00 0.00 0.00 0.00 0.00 0.00 0.00 0.00 0.00 0.00 0.00 0.00 0.01 0.01 0.01 0.02 0.02 0.02 0.02 0.03 0.03 0.03 0.03
0.00 0.00 0.00 0.00 0.00 0.00 0.00 0.00 0.00 0.00 0.00 0.00 0.00 0.00 0.00 0.00 0.00 0.00 0.00 0.00 0.00 0.00 0.00 0.00 0.00 0.00 0.00 0.00 0.00 0.00 0.00 0.00 0.01 0.01 0.01 0.01 0.01 0.01 0.01 0.02 0.02 0.02 0.02 0.02
0.00 0.00 0.00 0.00 0.00 0.00 0.00 0.00 0.00 0.00 0.00 0.00 0.00 0.00 0.00 0.00 0.00 0.00 0.00 0.00 0.00 0.00 0.00 0.00 0.00 0.00 0.00 0.00 0.00 0.00 0.01 0.01 0.01 0.01 0.01 0.01 0.01 0.01 0.01 0.02 0.02 0.02 0.01 0.01
0.00 0.00 0.00 0.00 0.00 0.00 0.00 0.00 0.00 0.00 0.00 0.00 0.00 0.00 0.00 0.00 0.00 0.00 0.00 0.00 0.00 0.00 0.00 0.00 0.00 0.00 0.00 0.00 0.00 0.01 0.01 0.01 0.01 0.01 0.01 0.01 0.01 0.01 0.02 0.02 0.02 0.02 0.01 0.01
0.00 0.00 0.00 0.00 0.00 0.00 0.00 0.00 0.00 0.00 0.00 0.00 0.00 0.00 0.00 0.00 0.00 0.00 0.00 0.00 0.00 0.00 0.00 0.00 0.00 0.00 0.00 0.00 0.01 0.01 0.01 0.01 0.01 0.01 0.01 0.01 0.01 0.01 0.01 0.02 0.02 0.02 0.02 0.02
0.00 0.00 0.00 0.00 0.00 0.00 0.00 0.00 0.00 0.00 0.00 0.00 0.00 0.00 0.00 0.00 0.00 0.00 0.00 0.00 0.00 0.00 0.00 0.00 0.00 0.00 0.01 0.01 0.01 0.01 0.01 0.02 0.01 0.01 0.01 0.01 0.01 0.01 0.01 0.01 0.01 0.01 0.02 0.02
0.00 0.00 0.00 0.00 0.00 0.00 0.00 0.00 0.00 0.00 0.00 0.00 0.00 0.00 0.00 0.00 0.00 0.00 0.00 0.00 0.00 0.00 0.00 0.00 0.00 0.01 0.01 0.01 0.01 0.01 0.01 0.02 0.02 0.01 0.01 0.01 0.01 0.01 0.01 0.01 0.01 0.01 0.02 0.02
0.00 0.00 0.00 0.00 0.00 0.00 0.00 0.00 0.00 0.00 0.00 0.00 0.01 0.01 0.01 0.00 0.00 0.00 0.00 0.00 0.00 0.00 0.00 0.00 0.00 0.01 0.01 0.01 0.01 0.01 0.01 0.01 0.02 0.02 0.01 0.01 0.02 0.02 0.02 0.02 0.02 0.02 0.02 0.02
0.00 0.00 0.00 0.00 0.00 0.00 0.00 0.00 0.00 0.00 0.00 0.00 0.00 0.01 0.01 0.01 0.01 0.01 0.01 0.00 0.00 0.00 0.00 0.00 0.00 0.01 0.01 0.01 0.01 0.01 0.01 0.01 0.01 0.01 0.01 0.01 0.02 0.02 0.02 0.02 0.02 0.02 0.02 0.01
0.00 0.00 0.00 0.00 0.00 0.00 0.00 0.00 0.01 0.00 0.00 0.00 0.00 0.01 0.01 0.01 0.01 0.01 0.01 0.01 0.00 0.00 0.00 0.00 0.00 0.01 0.01 0.01 0.01 0.01 0.01 0.01 0.01 0.01 0.01 0.01 0.01 0.02 0.02 0.02 0.02 0.02 0.01 0.01
0.01 0.01 0.00 0.00 0.01 0.01 0.01 0.01 0.01 0.01 0.01 0.00 0.00 0.00 0.01 0.01 0.01 0.02 0.01 0.01 0.01 0.00 0.00 0.00 0.00 0.01 0.01 0.01 0.01 0.01 0.01 0.01 0.01 0.01 0.01 0.02 0.02 0.02 0.02 0.02 0.02 0.01 0.01 0.01
0.01 0.01 0.01 0.01 0.01 0.01 0.01 0.01 0.01 0.01 0.01 0.01 0.01 0.00 0.00 0.00 0.01 0.02 0.02 0.01 0.01 0.01 0.01 0.00 0.00 0.01 0.01 0.01 0.01 0.02 0.01 0.01 0.01 0.01 0.01 0.01 0.01 0.01 0.01 0.01 0.01 0.01 0.01 0.01
0.01 0.01 0.01 0.01 0.01 0.01 0.01 0.01 0.02 0.01 0.01 0.01 0.01 0.01 0.01 0.01 0.01 0.02 0.02 0.01 0.01 0.01 0.01 0.01 0.01 0.01 0.01 0.01 0.01 0.02 0.02 0.02 0.01 0.01 0.01 0.01 0.01 0.01 0.01 0.01 0.01 0.00 0.00 0.00
MSLP
1006.38 1006.63 1006.83 1006.98 1007.11 1007.21 1007.28 1007.30 1007.26 1007.14 1006.96 1006.72 1006.45 1006.20 1006.00 1005.89 1005.91 1006.05 1006.31 1006.67 1007.09 1007.54 1007.97 1008.35 1008.68 1008.94 1009.16 1009.34 1009.51 1009.69 1009.90 1010.14 1010.42 1010.72 1011.03 1011.35 1011.64 1011.92 1012.16 1012.37 1012.55 1012.70 1012.83 1012.94
1006.49 1006.76 1006.93 1007.03 1007.08 1007.10 1007.09 1007.06 1007.00 1006.92 1006.81 1006.68 1006.55 1006.42 1006.34 1006.32 1006.38 1006.53 1006.77 1007.08 1007.44 1007.82 1008.18 1008.51 1008.79 1009.02 1009.20 1009.34 1009.48 1009.62 1009.79 1010.00 1010.26 1010.55 1010.87 1011.21 1011.55 1011.88 1012.18 1012.45 1012.68 1012.87 1013.01 1013.11
1006.64 1006.92 1007.10 1007.17 1007.17 1007.13 1007.08 1007.01 1006.95 1006.89 1006.84 1006.79 1006.76 1006.74 1006.75 1006.80 1006.91 1007.08 1007.31 1007.59 1007.89 1008.20 1008.50 1008.77 1008.99 1009.16 1009.29 1009.38 1009.47 1009.56 1009.68 1009.85 1010.08 1010.35 1010.68 1011.04 1011.42 1011.80 1012.16 1012.49 1012.77 1013.00 1013.16 1013.26
1006.80 1007.09 1007.26 1007.33 1007.31 1007.25 1007.16 1007.08 1007.01 1006.97 1006.96 1006.97 1007.00 1007.07 1007.15 1007.27 1007.43 1007.62 1007.85 1008.10 1008.37 1008.64 1008.88 1009.09 1009.26 1009.37 1009.44 1009.48 1009.51 1009.55 1009.62 1009.74 1009.93 1010.18 1010.50 1010.88 1011.28 1011.70 1012.11 1012.48 1012.80 1013.06 1013.24 1013.34
1006.95 1007.22 1007.38 1007.44 1007.42 1007.34 1007.25 1007.16 1007.10 1007.07 1007.09 1007.14 1007.22 1007.34 1007.48 1007.65 1007.85 1008.07 1008.30 1008.55 1008.81 1009.05 1009.26 1009.43 1009.56 1009.63 1009.66 1009.65 1009.63 1009.62 1009.65 1009.73 1009.88 1010.10 1010.41 1010.78 1011.19 1011.62 1012.05 1012.45 1012.80 1013.08 1013.28 1013.38
1007.04 1007.26 1007.39 1007.43 1007.41 1007.34 1007.25 1007.18 1007.13 1007.12 1007.16 1007.24 1007.36 1007.52 1007.70 1007.91 1008.14 1008.38 1008.64 1008.90 1009.15 1009.39 1009.59 1009.75 1009.86 1009.91 1009.92 1009.89 1009.85 1009.81 1009.81 1009.86 1009.97 1010.17 1010.45 1010.79 1011.19 1011.62 1012.05 1012.45 1012.81 1013.10 1013.31 1013.42
1007.06 1007.20 1007.27 1007.28 1007.25 1007.20 1007.13 1007.08 1007.05 1007.08 1007.14 1007.25 1007.40 1007.59 1007.80 1008.04 1008.30 1008.56 1008.84 1009.11 1009.38 1009.63 1009.84 1010.01 1010.13 1010.20 1010.21 1010.19 1010.15 1010.12 1010.10 1010.14 1010.23 1010.41 1010.65 1010.97 1011.34 1011.74 1012.15 1012.54 1012.89 1013.18 1013.39 1013.51
1006.99 1007.01 1007.02 1007.00 1006.96 1006.91 1006.88 1006.87 1006.88 1006.94 1007.04 1007.19 1007.37 1007.58 1007.82 1008.07 1008.34 1008.63 1008.91 1009.20 1009.48 1009.74 1009.97 1010.17 1010.32 1010.43 1010.49 1010.51 1010.51 1010.50 1010.51 1010.55 1010.64 1010.80 1011.02 1011.31 1011.64 1012.00 1012.38 1012.74 1013.07 1013.34 1013.55 1013.68
1006.81 1006.73 1006.66 1006.60 1006.56 1006.54 1006.55 1006.58 1006.66 1006.77 1006.92 1007.10 1007.31 1007.54 1007.79 1008.05 1008.32 1008.60 1008.89 1009.18 1009.46 1009.73 1009.99 1010.22 1010.42 1010.58 1010.70 1010.79 1010.85 1010.90 1010.96 1011.04 1011.15 1011.31 1011.52 1011.77 1012.07 1012.39 1012.72 1013.05 1013.35 1013.60 1013.80 1013.93
1006.53 1006.36 1006.23 1006.16 1006.12 1006.14 1006.19 1006.29 1006.43 1006.61 1006.81 1007.03 1007.27 1007.52 1007.77 1008.02 1008.28 1008.54 1008.80 1009.07 1009.34 1009.62 1009.89 1010.15 1010.39 1010.61 1010.81 1010.98 1011.12 1011.26 1011.39 1011.52 1011.68 1011.86 1012.07 1012.31 1012.57 1012.86 1013.15 1013.44 1013.70 1013.93 1014.11 1014.24
1006.17 1005.94 1005.79 1005.71 1005.71 1005.77 1005.89 1006.06 1006.28 1006.52 1006.77 1007.03 1007.30 1007.55 1007.79 1008.02 1008.24 1008.47 1008.69 1008.92 1009.16 1009.42 1009.69 1009.96 1010.25 1010.53 1010.80 1011.06 1011.30 1011.52 1011.74 1011.95 1012.16 1012.37 1012.59 1012.83 1013.08 1013.33 1013.59 1013.84 1014.07 1014.27 1014.43 1014.53
1005.74 1005.51 1005.37 1005.33 1005.37 1005.50 1005.69 1005.94 1006.22 1006.52 1006.83 1007.12 1007.40 1007.65 1007.87 1008.07 1008.24 1008.40 1008.57 1008.75 1008.94 1009.16 1009.42 1009.70 1010.01 1010.34 1010.68 1011.02 1011.35 1011.67 1011.98 1012.26 1012.53 1012.79 1013.04 1013.28 1013.51 1013.74 1013.96 1014.17 1014.37 1014.54 1014.67 1014.75
1005.27 1005.08 1005.00 1005.02 1005.14 1005.34 1005.61 1005.93 1006.27 1006.62 1006.96 1007.28 1007.56 1007.80 1007.99 1008.15 1008.27 1008.37 1008.47 1008.59 1008.73 1008.91 1009.14 1009.42 1009.75 1010.11 1010.50 1010.91 1011.32 1011.73 1012.11 1012.46 1012.79 1013.08 1013.34 1013.59 1013.81 1014.01 1014.20 1014.38 1014.54 1014.67 1014.77 1014.83
1004.78 1004.67 1004.68 1004.79 1005.00 1005.28 1005.63 1006.00 1006.40 1006.79 1007.15 1007.47 1007.75 1007.97 1008.13 1008.24 1008.31 1008.36 1008.40 1008.46 1008.56 1008.70 1008.91 1009.17 1009.51 1009.90 1010.33 1010.79 1011.26 1011.72 1012.15 1012.55 1012.91 1013.23 1013.50 1013.73 1013.93 1014.11 1014.26 1014.40 1014.53 1014.63 1014.70 1014.74
1004.29 1004.30 1004.42 1004.63 1004.93 1005.29 1005.70 1006.12 1006.55 1006.96 1007.33 1007.65 1007.91 1008.11 1008.25 1008.33 1008.36 1008.37 1008.38 1008.40 1008.46 1008.58 1008.76 1009.02 1009.36 1009.76 1010.21 1010.70 1011.20 1011.69 1012.15 1012.57 1012.94 1013.25 1013.50 1013.71 1013.88 1014.01 1014.13 1014.23 1014.32 1014.40 1014.46 1014.49
1003.82 1003.96 1004.19 1004.51 1004.89 1005.32 1005.77 1006.23 1006.67 1007.09 1007.45 1007.77 1008.02 1008.20 1008.32 1008.38 1008.40 1008.40 1008.39 1008.40 1008.45 1008.56 1008.74 1009.00 1009.34 1009.74 1010.20 1010.69 1011.19 1011.68 1012.13 1012.53 1012.87 1013.15 1013.37 1013.53 1013.65 1013.74 1013.81 1013.88 1013.94 1014.00 1014.05 1014.09
1003.40 1003.65 1003.99 1004.40 1004.85 1005.33 1005.81 1006.28 1006.73 1007.13 1007.49 1007.79 1008.03 1008.21 1008.33 1008.40 1008.43 1008.44 1008.45 1008.47 1008.54 1008.66 1008.85 1009.11 1009.45 1009.85 1010.29 1010.76 1011.24 1011.69 1012.10 1012.45 1012.74 1012.96 1013.11 1013.21 1013.27 1013.31 1013.34 1013.37 1013.42 1013.47 1013.53 1013.60
1003.06 1003.40 1003.82 1004.29 1004.79 1005.29 1005.79 1006.26 1006.69 1007.08 1007.43 1007.72 1007.96 1008.14 1008.28 1008.37 1008.44 1008.48 1008.53 1008.60 1008.70 1008.85 1009.06 1009.33 1009.66 1010.05 1010.46 1010.90 1011.32 1011.71 1012.06 1012.34 1012.55 1012.69 1012.76 1012.79 1012.79 1012.78 1012.77 1012.77 1012.80 1012.87 1012.95 1013.05
1002.82 1003.23 1003.70 1004.20 1004.72 1005.22 1005.71 1006.16 1006.57 1006.95 1007.28 1007.56 1007.81 1008.01 1008.18 1008.31 1008.43 1008.53 1008.63 1008.75 1008.90 1009.08 1009.31 1009.59 1009.92 1010.28 1010.66 1011.04 1011.39 1011.71 1011.97 1012.16 1012.29 1012.35 1012.35 1012.31 1012.25 1012.19 1012.15 1012.14 1012.17 1012.25 1012.37 1012.51
1002.73 1003.16 1003.65 1004.16 1004.66 1005.15 1005.61 1006.03 1006.42 1006.76 1007.08 1007.36 1007.62 1007.84 1008.05 1008.23 1008.40 1008.56 1008.72 1008.90 1009.09 1009.31 1009.56 1009.84 1010.15 1010.48 1010.81 1011.12 1011.41 1011.64 1011.82 1011.93 1011.97 1011.96 1011.89 1011.79 1011.69 1011.60 1011.55 1011.53 1011.58 1011.67 1011.82 1012.01
1002.80 1003.23 1003.71 1004.19 1004.66 1005.11 1005.53 1005.91 1006.26 1006.58 1006.88 1007.16 1007.43 1007.68 1007.91 1008.14 1008.36 1008.57 1008.79 1009.00 1009.23 1009.47 1009.73 1010.00 1010.29 1010.58 1010.86 1011.11 1011.32 1011.49 1011.59 1011.63 1011.61 1011.54 1011.43 1011.30 1011.18 1011.08 1011.02 1011.01 1011.07 1011.18 1011.35 1011.57
1003.05 1003.46 1003.90 1004.33 1004.75 1005.14 1005.51 1005.84 1006.15 1006.44 1006.72 1006.99 1007.26 1007.52 1007.79 1008.05 1008.30 1008.55 1008.80 1009.04 1009.28 1009.53 1009.78 1010.04 1010.30 1010.54 1010.77 1010.97 1011.13 1011.23 1011.29 1011.28 1011.23 1011.13 1011.00 1010.87 1010.74 1010.65 1010.60 1010.60 1010.67 1010.80 1010.98 1011.19
1003.47 1003.84 1004.22 1004.59 1004.95 1005.27 1005.57 1005.84 1006.10 1006.35 1006.61 1006.87 1007.13 1007.40 1007.67 1007.95 1008.22 1008.48 1008.74 1008.99 1009.23 1009.47 1009.71 1009.93 1010.16 1010.36 1010.55 1010.71 1010.82 1010.90 1010.92 1010.90 1010.84 1010.74 1010.63 1010.51 1010.40 1010.33 1010.30 1010.32 1010.39 1010.51 1010.67 1010.87
1004.02 1004.34 1004.66 1004.96 1005.23 1005.48 1005.71 1005.92 1006.13 1006.34 1006.56 1006.79 1007.04 1007.30 1007.56 1007.83 1008.10 1008.36 1008.61 1008.85 1009.07 1009.29 1009.50 1009.70 1009.89 1010.06 1010.21 1010.34 1010.44 1010.50 1010.53 1010.52 1010.47 1010.40 1010.32 1010.24 1010.17 1010.12 1010.11 1010.14 1010.20 1010.30 1010.43 1010.58
1004.64 1004.91 1005.16 1005.38 1005.58 1005.75 1005.91 1006.06 1006.21 1006.37 1006.55 1006.75 1006.97 1007.20 1007.45 1007.70 1007.94 1008.18 1008.41 1008.62 1008.82 1009.01 1009.19 1009.36 1009.52 1009.67 1009.81 1009.92 1010.02 1010.09 1010.13 1010.14 1010.13 1010.11 1010.07 1010.03 1010.00 1009.99 1009.99 1010.02 1010.07 1010.13 1010.21 1010.29
1005.26 1005.47 1005.65 1005.81 1005.93 1006.03 1006.12 1006.21 1006.31 1006.42 1006.56 1006.72 1006.90 1007.10 1007.32 1007.53 1007.75 1007.95 1008.15 1008.33 1008.50 1008.66 1008.82 1008.96 1009.10 1009.24 1009.36 1009.48 1009.58 1009.67 1009.74 1009.79 1009.83 1009.84 1009.85 1009.86 1009.86 1009.87 1009.88 1009.90 1009.92 1009.94 1009.96 1009.97
1005.80 1005.96 1006.08 1006.17 1006.23 1006.27 1006.30 1006.33 1006.38 1006.45 1006.55 1006.67 1006.81 1006.98 1007.15 1007.33 1007.51 1007.69 1007.85 1008.00 1008.15 1008.28 1008.41 1008.54 1008.67 1008.80 1008.92 1009.04 1009.16 1009.27 1009.37 1009.45 1009.52 1009.58 1009.63 1009.67 1009.70 1009.72 1009.73 1009.73 1009.73 1009.71 1009.67 1009.61
Thickness
5699 5704 5703 5700 5698 5697 5692 5691 5684 5689 5692 5697 5700 5697 5696 5695 5691 5686 5681 5677 5673 5669 5666 5665 5662 5659 5657 5653 5650 5647 5643 5639 5636 5634 5631 5628 5624 5621 5619 5617 5615 5613 5612 5611
5689 5698 5698 5695 5698 5696 5692 5693 5690 5689 5688 5699 5700 5697 5692 5688 5683 5678 5674 5671 5668 5664 5660 5658 5655 5654 5651 5648 5645 5642 5638 5635 5632 5629 5625 5621 5618 5615 5613 5610 5608 5607 5606 5605
5676 5689 5687 5681 5695 5695 5692 5693 5689 5680 5684 5692 5689 5687 5684 5681 5677 5673 5669 5665 5661 5658 5655 5652 5650 5648 5645 5643 5640 5636 5633 5629 5626 5622 5618 5615 5612 5609 5606 5604 5602 5601 5600 5599
5670 5672 5660 5686 5704 5700 5693 5690 5689 5687 5686 5685 5682 5681 5680 5677 5672 5668 5664 5660 5656 5653 5650 5648 5646 5643 5640 5637 5634 5630 5627 5623 5620 5616 5612 5609 5605 5602 5600 5598 5596 5595 5593 5592
5663 5658 5667 5683 5692 5692 5683 5679 5686 5682 5679 5677 5676 5673 5668 5670 5667 5663 5659 5655 5651 5648 5645 5642 5639 5637 5633 5629 5626 5623 5620 5616 5613 5610 5605 5602 5599 5597 5595 5593 5590 5589 5587 5585
5657 5649 5651 5674 5688 5693 5680 5665 5680 5679 5673 5669 5665 5652 5653 5660 5659 5655 5653 5649 5645 5642 5638 5634 5632 5629 5624 5621 5618 5615 5613 5610 5607 5604 5600 5596 5594 5591 5589 5587 5584 5582 5580 5579
5648 5647 5658 5676 5683 5680 5655 5656 5672 5673 5668 5663 5656 5652 5653 5653 5649 5646 5644 5641 5638 5634 5629 5626 5624 5621 5616 5613 5610 5609 5606 5603 5600 5597 5594 5591 5588 5585 5582 5580 5577 5575 5573 5572
5646 5640 5646 5671 5670 5662 5660 5668 5667 5664 5662 5657 5652 5650 5647 5644 5640 5637 5634 5632 5629 5625 5621 5618 5616 5612 5608 5605 5604 5602 5598 5595 5592 5590 5588 5585 5580 5577 5575 5572 5569 5567 5565 5564
5650 5649 5661 5667 5664 5665 5665 5660 5657 5655 5653 5649 5644 5640 5637 5633 5630 5627 5625 5622 5620 5616 5612 5609 5607 5604 5599 5598 5596 5593 5590 5587 5585 5582 5579 5577 5573 5569 5566 5564 5561 5559 5557 5555
5648 5652 5657 5658 5657 5657 5655 5652 5649 5647 5644 5640 5634 5631 5627 5624 5620 5618 5616 5613 5611 5607 5603 5600 5598 5596 5593 5590 5588 5585 5582 5579 5577 5574 5571 5568 5564 5561 5557 5555 5553 5551 5549 5547
5638 5643 5646 5647 5646 5646 5644 5643 5639 5637 5634 5630 5626 5622 5619 5615 5611 5608 5606 5604 5602 5598 5595 5592 5590 5587 5584 5581 5579 5576 5574 5571 5569 5566 5562 5559 5555 5552 5550 5548 5546 5544 5542 5539
5626 5635 5633 5633 5637 5637 5633 5631 5628 5625 5621 5620 5617 5613 5609 5606 5603 5600 5597 5595 5592 5590 5587 5584 5582 5578 5576 5573 5571 5568 5565 5563 5560 5557 5554 5550 5546 5543 5541 5539 5538 5537 5535 5532
5629 5631 5628 5627 5627 5627 5624 5621 5619 5615 5612 5608 5606 5604 5600 5597 5595 5592 5589 5587 5583 5581 5579 5576 5573 5570 5567 5565 5562 5560 5557 5554 5552 5549 5546 5542 5538 5535 5531 5530 5528 5527 5525 5523
5620 5619 5616 5616 5615 5615 5614 5611 5609 5606 5603 5600 5597 5594 5591 5588 5585 5583 5580 5578 5576 5573 5570 5567 5564 5561 5559 5556 5553 5551 5549 5547 5544 5541 5538 5535 5531 5528 5525 5523 5519 5516 5515 5513
5609 5608 5606 5606 5605 5604 5603 5600 5596 5593 5592 5589 5587 5584 5581 5578 5576 5574 5572 5570 5567 5564 5561 5558 5555 5552 5550 5547 5544 5543 5541 5538 5535 5533 5530 5527 5524 5520 5518 5516 5512 5509 5506 5504
5598 5598 5596 5595 5594 5593 5591 5588 5585 5583 5581 5579 5577 5574 5572 5570 5567 5565 5563 5561 5557 5554 5551 5549 5546 5544 5541 5538 5536 5533 5532 5531 5528 5525 5522 5519 5516 5513 5510 5507 5504 5502 5499 5497
5586 5585 5584 5584 5584 5583 5581 5579 5576 5574 5572 5570 5567 5565 5563 5560 5558 5556 5554 5552 5550 5547 5544 5541 5538 5536 5533 5531 5528 5526 5524 5522 5521 5517 5514 5511 5508 5505 5502 5499 5497 5495 5492 5490
5582 5580 5579 5578 5576 5573 5572 5570 5568 5566 5563 5561 5559 5556 5553 5551 5549 5547 5545 5543 5540 5538 5536 5533 5530 5528 5526 5523 5521 5519 5516 5514 5511 5508 5506 5503 5501 5498 5495 5492 5490 5488 5485 5483
5575 5573 5571 5570 5567 5565 5563 5561 5559 5558 5555 5553 5550 5547 5545 5543 5541 5539 5537 5534 5531 5528 5527 5525 5523 5520 5518 5516 5514 5511 5509 5507 5504 5501 5498 5496 5493 5490 5488 5485 5483 5480 5478 5475
5565 5565 5563 5561 5560 5557 5555 5553 5551 5549 5547 5545 5542 5539 5537 5535 5534 5531 5529 5526 5523 5521 5520 5517 5515 5513 5511 5509 5507 5504 5502 5499 5497 5494 5491 5488 5486 5483 5481 5478 5476 5474 5471 5469
5556 5555 5553 5552 5550 5549 5547 5546 5543 5541 5539 5537 5534 5532 5530 5528 5526 5524 5521 5517 5516 5514 5512 5510 5507 5505 5503 5501 5499 5496 5494 5492 5490 5487 5484 5482 5479 5477 5474 5471 5469 5467 5464 5462
5547 5547 5545 5544 5542 5541 5540 5539 5536 5534 5532 5530 5528 5526 5523 5521 5519 5516 5513 5510 5509 5506 5504 5502 5499 5498 5496 5494 5491 5489 5487 5485 5483 5480 5478 5475 5472 5470 5467 5465 5462 5460 5457 5455
5540 5539 5538 5537 5536 5535 5534 5532 5530 5528 5525 5524 5522 5519 5517 5514 5511 5508 5505 5504 5502 5499 5497 5494 5492 5490 5489 5486 5484 5482 5480 5478 5476 5474 5471 5468 5466 5464 5461 5459 5456 5454 5451 5448
5531 5530 5529 5529 5528 5526 5525 5524 5522 5520 5519 5517 5515 5513 5510 5507 5504 5502 5500 5498 5495 5492 5489 5487 5485 5483 5481 5478 5476 5474 5473 5471 5468 5466 5464 5462 5459 5457 5455 5453 5450 5448 5445 5443
5522 5521 5521 5521 5519 5518 5517 5516 5514 5512 5511 5509 5507 5506 5503 5500 5497 5494 5492 5489 5487 5484 5481 5479 5477 5475 5473 5471 5468 5466 5465 5463 5461 5459 5456 5454 5452 5450 5447 5445 5443 5441 5438 5436
5514 5513 5512 5512 5511 5510 5509 5508 5506 5504 5503 5501 5499 5497 5495 5493 5490 5487 5484 5481 5479 5476 5473 5471 5469 5467 5465 5463 5460 5458 5456 5454 5452 5450 5448 5446 5444 5442 5440 5437 5435 5433 5430 5428
5506 5505 5503 5503 5502 5501 5500 5499 5498 5496 5495 5493 5491 5489 5487 5484 5481 5479 5476 5474 5471 5468 5465 5463 5461 5459 5457 5454 5452 5450 5447 5445 5443 5441 5439 5437 5435 5433 5431 5429 5427 5424 5422 5420